Pierre Geray

Pierre Geray

Statistiques 2026

  • Courses courues : 177
  • Nb de victoires : 8
  • Nb de places : 31
  • Écart gagnant : 3
  • Réussite à la gagne : 5%
  • Réussite à la place : 18%
Musique : 8m 4a Da 1a 6a 0a 1a 3a 4a 8m 1a 9a 4a 7a 0a 7a 6a Da
DateRangCatégorieAlloc.Dist.HippodromeChevalRed. KmSpé.
14/10/18 6 Trot 25 000€ 2 650m Bordeaux Le Bouscat Borsalino de Betan 1'17"6 Monté
14/10/18 8 Trot 20 000€ 2 675m Bordeaux Le Bouscat Drugstore 1'15"7 Attelé
16/10/18 8 Trot 46 000€ 2 100m Vincennes Aladin 1'14"4 Attelé lire

Venu aux premiers rangs en face, a nettement faibli par la suite.

18/10/18 0 Trot 20 000€ 2 150m Enghien Soisy Un Diable Blanc Attelé lire

N'a joué aucun rôle utile.

18/10/18 0 Trot 50 000€ 2 900m Enghien Soisy Cappricia Verderie Monté lire

N'a joué aucun rôle utile.

21/10/18 7 Trot 13 000€ 2 625m Agen Fantasia du Pont 1'20"1 Attelé
21/10/18 0 Trot 18 000€ 2 575m Agen Daki du Dorat Attelé
21/10/18 0 Trot 22 000€ 2 625m Agen Cindy du Vivier Attelé
27/10/18 7 Trot 18 000€ 2 650m Marseille Vivaux Cachaca du Bois 1'18"0 Attelé
28/10/18 D Trot 10 000€ 2 725m Grenade Sur Garonne Elliot de Caveland Attelé
28/10/18 0 Trot 10 000€ 2 725m Grenade Sur Garonne Dhorens Attelé
28/10/18 D Trot 10 000€ 2 725m Grenade Sur Garonne Birdy Attelé
29/10/18 0 Trot 20 000€ 2 750m Toulouse Corail Attelé
29/10/18 1 Trot 19 000€ 2 150m Toulouse Ethan Drive 1'17"6 Attelé
29/10/18 5 Trot 25 000€ 2 975m Toulouse Victor Latin 1'17"6 Monté
01/11/18 5 Trot 15 000€ 2 400m Beaumont De Lomagne Donkey Kong 1'18"7 Attelé
01/11/18 D Trot 15 000€ 2 400m Beaumont De Lomagne Diva de Safran Attelé
01/11/18 4 Trot 15 000€ 2 400m Beaumont De Lomagne Eden Lady 1'18"0 Attelé
01/11/18 4 Trot 25 000€ 2 400m Beaumont De Lomagne Cold Speed 1'15"8 Attelé
03/11/18 D Trot 22 000€ 2 625m La Rochelle Calypso Queen Monté
03/11/18 4 Trot 21 000€ 2 650m La Rochelle Eddy du Vivier 1'17"4 Attelé
03/11/18 0 Trot 22 000€ 2 650m La Rochelle Duc d'Occagnes Attelé
04/11/18 3 Trot 13 000€ 2 000m Bordeaux Le Bouscat Fruit d'Ibiza 1'16"2 Attelé
04/11/18 4 Trot 15 000€ 2 650m Bordeaux Le Bouscat Deesse du Houlme 1'17"3 Monté
07/11/18 2 Trot 20 000€ 3 000m Nantes Deesse du Houlme 1'16"2 Monté lire

Une des animatrices, a longtemps fait illusion pour la victoire, ne s'inclinant que pour finir.

09/11/18 5 Trot 18 000€ 2 875m Laval Dune du Poret 1'16"4 Monté
13/11/18 4 Trot 17 000€ 2 550m Bordeaux Le Bouscat Ethan Drive 1'15"3 Attelé
14/11/18 0 Trot 27 000€ 2 250m Maure De Bretagne Victorious Lord Monté
14/11/18 4 Trot 20 000€ 2 875m Maure De Bretagne Diva Fatale 1'16"4 Monté
16/11/18 D Trot 45 000€ 2 200m Vincennes Dune du Poret Monté lire

A très vite pris le galop.

18/11/18 0 Trot 15 000€ 2 700m Graignes Dolce Royale Attelé
21/11/18 9 Trot 25 000€ 2 850m Mauquenchy Aladin 1'16"7 Attelé
21/11/18 3 Trot 22 000€ 2 850m Mauquenchy Deesse du Houlme 1'16"7 Monté
22/11/18 D Trot 95 000€ 2 850m Vincennes Vic de la Ferme Monté lire

A été sanctionné pour allures douteuses en plaine.

24/11/18 D Trot 14 000€ 2 400m Marseille Borely Ceylan de Lorgere Monté
25/11/18 0 Trot 13 000€ 2 050m Agen Fruit d'Ibiza Attelé
25/11/18 3 Trot 14 000€ 2 625m Agen Garde Contre 1'21"4 Attelé
25/11/18 9 Trot 10 000€ 2 575m Agen Elliot de Caveland 1'20"0 Attelé
25/11/18 4 Trot 10 000€ 2 575m Agen Diva des Bleuets 1'17"4 Attelé
27/11/18 9 Trot 45 000€ 2 850m Vincennes Boldena 1'17"3 Monté lire

Rapidement bien placée, a complètement cédé dans le tournant final.

30/11/18 6 Trot 36 000€ 2 200m Vincennes Dune du Poret 1'15"4 Monté lire

Après avoir figuré au sein du peloton, a terminé correctement.

02/12/18 7 Trot 30 000€ 2 550m Beaumont De Lomagne Atout Paris 1'17"9 Monté
05/12/18 9 Trot 20 000€ 2 650m Marseille Vivaux Duc du Plateau 1'17"8 Monté
09/12/18 0 Trot 14 000€ 2 550m Bordeaux Le Bouscat Diva de Nganda Attelé
09/12/18 7 Trot 15 000€ 2 550m Bordeaux Le Bouscat Crack Money 1'15"5 Attelé
10/12/18 6 Trot 34 000€ 2 700m Vincennes Dune du Poret 1'16"2 Monté lire

A toujours évolué dans la dernière partie du peloton.

16/12/18 5 Trot 14 000€ 2 100m Grenade Sur Garonne Forum 1'25"4 Monté
16/12/18 8 Trot 18 000€ 2 725m Grenade Sur Garonne Calliope de Visais 1'19"9 Attelé
21/12/18 7 Trot 18 000€ 2 200m Pontchateau Fashion Bourbon 1'19"2 Attelé lire

N'a joué aucun rôle utile.

21/12/18 6 Trot 18 000€ 2 800m Pontchateau Deesse du Sarasin 1'18"5 Monté lire

Une des animatrices, a progressivement marqué le pas pour finir.